Empire State — WDE4431 — position and weather

sailwx.info

Track history (hours):
 
Tides and Currents Weather Stations Pressure Air Temp Water Temp Dewpoint Dewpoint Depression Visibility Wind Speed Wind Dir Waves Ship Positions

Empire State

Owner: Crowley Petroleum Services, Jacksonville, FL. More information available from US FCC via Universal Licensing System and Coast Guard Vessel Documentation Center.

Last reported at 2014-Oct-24 14:34 UTC. Time now 2014-Oct-24 15:27 UTC.
Position N 33°38' W 119°01'.

Length 183 m; draft 10 m.

Type: Military. MMSI: 367353080.

Date/timePositionNaut miles runAvg speedWind from/ knotsBaromVisibWave heightAir tempDewpointWater temp
2014-Oct-24 14:34N 33°38' W 119°01'9 9.5
2014-Oct-24 13:34N 33°38' W 119°12'1211.6
2014-Oct-24 12:33N 33°38' W 119°26'1312.7
2014-Oct-24 11:33N 33°38' W 119°41'1312.5
2014-Oct-24 10:33N 33°38' W 119°56'1212.1
2014-Oct-24 09:33N 33°38' W 120°11'1312.0
2014-Oct-24 08:29N 33°38' W 120°26'1112.0
2014-Oct-24 07:34N 33°38' W 120°40'1211.6
2014-Oct-24 06:33N 33°41' W 120°53'1212.4
2014-Oct-24 05:33N 33°49' W 121°05'1313.2
2014-Oct-24 04:33N 33°56' W 121°18'1414.5
2014-Oct-24 03:34N 34°05' W 121°32'1514.7
2014-Oct-24 02:33N 34°14' W 121°46'1514.6
2014-Oct-24 01:34N 34°23' W 122°00'1514.6
2014-Oct-24 00:33N 34°32' W 122°14'1514.7
2014-Oct-23 23:33N 34°41' W 122°29'1615.1
2014-Oct-23 22:30N 34°51' W 122°44'1415.0
2014-Oct-23 21:34N 34°59' W 122°57'1414.2
2014-Oct-23 20:33N 35°13' W 123°03'1514.6
2014-Oct-23 19:32N 35°27' W 123°07'1414.5
2014-Oct-23 18:33N 35°41' W 123°11'1414.4
2014-Oct-23 17:34N 35°55' W 123°15'1414.0
2014-Oct-23 16:33N 36°08' W 123°19'1414.4
2014-Oct-23 15:33N 36°23' W 123°22'1414.2
2014-Oct-23 14:33N 36°36' W 123°26'1312.8
2014-Oct-23 13:33N 36°49' W 123°29'1212.3
2014-Oct-23 12:33N 37°01' W 123°27'1313.3
2014-Oct-23 11:33N 37°13' W 123°19'1413.0
2014-Oct-23 10:31N 37°25' W 123°11'1212.5
2014-Oct-23 09:33N 37°35' W 123°03'1111.3
2014-Oct-23 08:33N 37°41' W 122°51'1110.8
2014-Oct-23 07:33N 37°46' W 122°39'1010.3
2014-Oct-23 06:33N 37°50' W 122°27'7 7.3
2014-Oct-23 05:33N 37°58' W 122°27'8 8.1
2014-Oct-23 04:33N 38°03' W 122°19'4 3.6
2014-Oct-23 03:31N 38°04' W 122°15'0 0.0
2014-Oct-23 02:31N 38°04' W 122°15'0 0.0
2014-Oct-23 01:25N 38°04' W 122°15'0 0.0
2014-Oct-22 15:13N 38°04' W 122°15'0 0.0
2014-Oct-21 02:22N 38°04' W 122°15'2 1.9
2014-Oct-21 01:33N 38°04' W 122°17'7 6.8
2014-Oct-21 00:33N 38°01' W 122°24'1110.8
2014-Oct-20 23:34N 37°50' W 122°24'5 4.8
2014-Oct-20 22:31N 37°46' W 122°21'0 0.0
2014-Oct-20 21:31N 37°46' W 122°21'0 0.0
2014-Oct-20 20:31N 37°46' W 122°21'0 0.0
2014-Oct-20 19:31N 37°46' W 122°21'0 0.2
2014-Oct-20 18:31N 37°46' W 122°21'0 0.1
2014-Oct-20 17:31N 37°45' W 122°21'0 0.0
2014-Oct-20 16:31N 37°45' W 122°21'0 0.0
2014-Oct-20 15:31N 37°45' W 122°21'0 0.0
2014-Oct-20 14:31N 37°46' W 122°21'0 0.1
2014-Oct-20 13:31N 37°45' W 122°21'0 0.1
2014-Oct-20 12:31N 37°46' W 122°21'0 0.2
2014-Oct-20 11:31N 37°46' W 122°21'0 0.0
2014-Oct-20 10:31N 37°46' W 122°21'0 0.0
2014-Oct-20 09:31N 37°46' W 122°21'0 0.0
2014-Oct-20 08:31N 37°46' W 122°21'0 0.0
2014-Oct-20 07:31N 37°46' W 122°21'0 0.0
2014-Oct-20 06:31N 37°46' W 122°21'0 0.2
2014-Oct-20 05:31N 37°46' W 122°21'0 0.1
2014-Oct-20 04:31N 37°46' W 122°21'0 0.0
2014-Oct-20 03:31N 37°46' W 122°21'0 0.0
2014-Oct-20 02:31N 37°46' W 122°21'0 0.0
2014-Oct-20 01:31N 37°45' W 122°21'0 0.0
2014-Oct-20 00:31N 37°46' W 122°21'0 0.1
2014-Oct-19 23:31N 37°46' W 122°21'0 0.1
2014-Oct-19 22:31N 37°46' W 122°21'0 0.0
2014-Oct-19 21:31N 37°46' W 122°21'1 1.3
2014-Oct-19 20:33N 37°47' W 122°22'9 8.8
2014-Oct-19 19:33N 37°47' W 122°33'1111.3
2014-Oct-19 18:33N 37°42' W 122°45'1110.8
2014-Oct-19 17:33N 37°36' W 122°57'10 9.9
2014-Oct-19 16:33N 37°33' W 123°09'1210.3
2014-Oct-19 15:22N 37°34' W 123°24'910.0
2014-Oct-19 14:28N 37°35' W 123°35'1211.6
2014-Oct-19 13:26N 37°36' W 123°50'51210.2
2014-Oct-17 11:24N 46°08' W 124°22'1011.6
2014-Oct-17 10:33N 46°13' W 124°09'1211.6
2014-Oct-17 09:33N 46°11' W 123°53'1312.9
2014-Oct-17 08:33N 46°15' W 123°35'5210.4
2014-Oct-17 03:33N 45°38' W 122°42'0 0.1
2014-Oct-17 02:32N 45°38' W 122°42'0 0.0
2014-Oct-17 01:32N 45°38' W 122°42'0 0.0
2014-Oct-15 13:33N 45°38' W 122°43'50 8.3
2014-Oct-15 07:33N 46°16' W 123°29'1110.8
2014-Oct-15 06:33N 46°14' W 123°44'9 8.6
2014-Oct-15 05:33N 46°12' W 123°56'8 8.1
2014-Oct-15 04:33N 46°14' W 124°08'1212.1
2014-Oct-15 03:33N 46°09' W 124°24'  
Track history (hours):
 
Tides and Currents Weather Stations Pressure Air Temp Water Temp Dewpoint Dewpoint Depression Visibility Wind Speed Wind Dir Waves Ship Positions

Empire State

Owner: Crowley Petroleum Services, Jacksonville, FL. More information available from US FCC via Universal Licensing System and Coast Guard Vessel Documentation Center.

Last reported at 2014-Oct-24 14:34 UTC. Time now 2014-Oct-24 15:27 UTC.
Position N 33°38' W 119°01'.

Length 183 m; draft 10 m.

Type: Military. MMSI: 367353080.

Date/timePositionNaut miles runAvg speedWind from/ knotsBaromVisibWave heightAir tempDewpointWater temp
2014-Oct-24 14:34N 33°38' W 119°01'9 9.5
2014-Oct-24 13:34N 33°38' W 119°12'1211.6
2014-Oct-24 12:33N 33°38' W 119°26'1312.7
2014-Oct-24 11:33N 33°38' W 119°41'1312.5
2014-Oct-24 10:33N 33°38' W 119°56'1212.1
2014-Oct-24 09:33N 33°38' W 120°11'1312.0
2014-Oct-24 08:29N 33°38' W 120°26'1112.0
2014-Oct-24 07:34N 33°38' W 120°40'1211.6
2014-Oct-24 06:33N 33°41' W 120°53'1212.4
2014-Oct-24 05:33N 33°49' W 121°05'1313.2
2014-Oct-24 04:33N 33°56' W 121°18'1414.5
2014-Oct-24 03:34N 34°05' W 121°32'1514.7
2014-Oct-24 02:33N 34°14' W 121°46'1514.6
2014-Oct-24 01:34N 34°23' W 122°00'1514.6
2014-Oct-24 00:33N 34°32' W 122°14'1514.7
2014-Oct-23 23:33N 34°41' W 122°29'1615.1
2014-Oct-23 22:30N 34°51' W 122°44'1415.0
2014-Oct-23 21:34N 34°59' W 122°57'1414.2
2014-Oct-23 20:33N 35°13' W 123°03'1514.6
2014-Oct-23 19:32N 35°27' W 123°07'1414.5
2014-Oct-23 18:33N 35°41' W 123°11'1414.4
2014-Oct-23 17:34N 35°55' W 123°15'1414.0
2014-Oct-23 16:33N 36°08' W 123°19'1414.4
2014-Oct-23 15:33N 36°23' W 123°22'1414.2
2014-Oct-23 14:33N 36°36' W 123°26'1312.8
2014-Oct-23 13:33N 36°49' W 123°29'1212.3
2014-Oct-23 12:33N 37°01' W 123°27'1313.3
2014-Oct-23 11:33N 37°13' W 123°19'1413.0
2014-Oct-23 10:31N 37°25' W 123°11'1212.5
2014-Oct-23 09:33N 37°35' W 123°03'1111.3
2014-Oct-23 08:33N 37°41' W 122°51'1110.8
2014-Oct-23 07:33N 37°46' W 122°39'1010.3
2014-Oct-23 06:33N 37°50' W 122°27'7 7.3
2014-Oct-23 05:33N 37°58' W 122°27'8 8.1
2014-Oct-23 04:33N 38°03' W 122°19'4 3.6
2014-Oct-23 03:31N 38°04' W 122°15'0 0.0
2014-Oct-23 02:31N 38°04' W 122°15'0 0.0
2014-Oct-23 01:25N 38°04' W 122°15'0 0.0
2014-Oct-22 15:13N 38°04' W 122°15'0 0.0
2014-Oct-21 02:22N 38°04' W 122°15'2 1.9
2014-Oct-21 01:33N 38°04' W 122°17'7 6.8
2014-Oct-21 00:33N 38°01' W 122°24'1110.8
2014-Oct-20 23:34N 37°50' W 122°24'5 4.8
2014-Oct-20 22:31N 37°46' W 122°21'0 0.0
2014-Oct-20 21:31N 37°46' W 122°21'0 0.0
2014-Oct-20 20:31N 37°46' W 122°21'0 0.0
2014-Oct-20 19:31N 37°46' W 122°21'0 0.2
2014-Oct-20 18:31N 37°46' W 122°21'0 0.1
2014-Oct-20 17:31N 37°45' W 122°21'0 0.0
2014-Oct-20 16:31N 37°45' W 122°21'0 0.0
2014-Oct-20 15:31N 37°45' W 122°21'0 0.0
2014-Oct-20 14:31N 37°46' W 122°21'0 0.1
2014-Oct-20 13:31N 37°45' W 122°21'0 0.1
2014-Oct-20 12:31N 37°46' W 122°21'0 0.2
2014-Oct-20 11:31N 37°46' W 122°21'0 0.0
2014-Oct-20 10:31N 37°46' W 122°21'0 0.0
2014-Oct-20 09:31N 37°46' W 122°21'0 0.0
2014-Oct-20 08:31N 37°46' W 122°21'0 0.0
2014-Oct-20 07:31N 37°46' W 122°21'0 0.0
2014-Oct-20 06:31N 37°46' W 122°21'0 0.2
2014-Oct-20 05:31N 37°46' W 122°21'0 0.1
2014-Oct-20 04:31N 37°46' W 122°21'0 0.0
2014-Oct-20 03:31N 37°46' W 122°21'0 0.0
2014-Oct-20 02:31N 37°46' W 122°21'0 0.0
2014-Oct-20 01:31N 37°45' W 122°21'0 0.0
2014-Oct-20 00:31N 37°46' W 122°21'0 0.1
2014-Oct-19 23:31N 37°46' W 122°21'0 0.1
2014-Oct-19 22:31N 37°46' W 122°21'0 0.0
2014-Oct-19 21:31N 37°46' W 122°21'1 1.3
2014-Oct-19 20:33N 37°47' W 122°22'9 8.8
2014-Oct-19 19:33N 37°47' W 122°33'1111.3
2014-Oct-19 18:33N 37°42' W 122°45'1110.8
2014-Oct-19 17:33N 37°36' W 122°57'10 9.9
2014-Oct-19 16:33N 37°33' W 123°09'1210.3
2014-Oct-19 15:22N 37°34' W 123°24'910.0
2014-Oct-19 14:28N 37°35' W 123°35'1211.6
2014-Oct-19 13:26N 37°36' W 123°50'51210.2
2014-Oct-17 11:24N 46°08' W 124°22'1011.6
2014-Oct-17 10:33N 46°13' W 124°09'1211.6
2014-Oct-17 09:33N 46°11' W 123°53'1312.9
2014-Oct-17 08:33N 46°15' W 123°35'5210.4
2014-Oct-17 03:33N 45°38' W 122°42'0 0.1
2014-Oct-17 02:32N 45°38' W 122°42'0 0.0
2014-Oct-17 01:32N 45°38' W 122°42'0 0.0
2014-Oct-15 13:33N 45°38' W 122°43'50 8.3
2014-Oct-15 07:33N 46°16' W 123°29'1110.8
2014-Oct-15 06:33N 46°14' W 123°44'9 8.6
2014-Oct-15 05:33N 46°12' W 123°56'8 8.1
2014-Oct-15 04:33N 46°14' W 124°08'1212.1
2014-Oct-15 03:33N 46°09' W 124°24'  

Dump ship's entire track history